Flag for U.S.A. Weather past 2 weeks in Kalamazoo, Michigan, U.S.A.

Now
63 °F

Partly sunny.


Feels Like: 63 °F
Forecast: 57 / 78 °F
Wind: 3 mph from Southeast

Location: Kalamazoo / Battle Creek International Airport

Current Time: Aug 27, 2015 at 9:24:28 PM

Latest Report: Aug 27, 2015 at 8:53 PM


Visibility: 10 mi

Pressure: 30.17 "Hg

Humidity: 75%

Dew point: 55 °F

Location of KalamazooLocation

Historic Weather in Kalamazoo — Graph

°F

Kalamazoo temperature yesterday

Maximum temperature yesterday: 65 °F (at 1:53 PM)
Minimum temperature yesterday: 54 °F (at 11:53 PM)
Average temperature yesterday: 60 °F

Past Weeks' High & Low Weather Summary

 TemperatureHumidityPressure
High88 °F (Aug 16, 3:53 PM)94% (Aug 15, 2:53 AM)30.27 "Hg (Aug 15, 2:53 AM)
Low49 °F (Aug 27, 5:53 AM)42% (Aug 22, 3:53 PM)29.69 "Hg (Aug 19, 5:53 PM)
Average69 °F73%30.01 "Hg
* Reported Aug 12 7:53 PM — Aug 27 7:53 PM, Kalamazoo, Weather by CustomWeather, © 2015

Note: Actual official high and low records may vary slightly from our data, if they occured in-between our weather recording intervals... More about our weather records

Advertising

Kalamazoo weather history for previous 24 hours

 ConditionsComfort  
Time TempWeatherWind HumidityBarometerVisibility
7:53 PM
Thu, Aug 27
66 °FPartly sunny.3 mph68%30.16 "Hg10 mi
6:53 PM69 °FPassing clouds.3 mph61%30.16 "Hg10 mi
5:53 PM70 °FScattered clouds.5 mph59%30.17 "Hg10 mi
4:53 PM70 °FOvercast.No wind55%30.17 "Hg10 mi
3:53 PM69 °FOvercast.No wind57%30.18 "Hg10 mi
2:53 PM70 °FPartly sunny.No wind55%30.19 "Hg10 mi
1:53 PM68 °FPartly sunny.3 mph61%30.19 "Hg10 mi
12:53 PM66 °FPassing clouds.5 mph63%30.21 "Hg10 mi
11:53 AM63 °FScattered clouds.8 mph73%30.23 "Hg10 mi
10:53 AM60 °FOvercast.No wind80%30.27 "Hg10 mi
9:53 AM59 °FMostly cloudy.3 mph84%30.25 "Hg10 mi
8:53 AM57 °FOvercast.No wind90%30.24 "Hg10 mi
7:53 AM50 °FLight fog.No wind93%30.22 "Hg9 mi
6:53 AM49 °FClear.No wind90%30.20 "Hg9 mi
5:53 AM49 °FClear.No wind93%30.19 "Hg9 mi
4:53 AM50 °FClear.No wind93%30.18 "Hg10 mi
3:53 AM50 °FFog.No wind93%30.16 "Hg1 mi
2:59 AM50 °FFog.No wind93%30.16 "Hg1 mi
1:53 AM52 °FFog.No wind93%30.17 "Hg1 mi
12:58 AM54 °FFog.No wind90%30.17 "Hg4 mi
11:53 PM
Wed, Aug 26
54 °FClear.No wind93%30.17 "Hg10 mi
10:53 PM57 °FClear.3 mph83%30.18 "Hg10 mi
9:53 PM58 °FClear.5 mph84%30.17 "Hg10 mi
Weather by CustomWeather, © 2015

See weather overviewHow to use our weather pages